Location: Brahman Valley
(40.6513°N, 111.8855°W)
Time: 07:32:24
(UTC+00:00)

Tiros 1 despin weight - Pass Details

Date: 15 May 2021
Orbit: 594 x 641 km, 48.2° (Epoch: 22 June)

Event Time Altitude Azimuth Distance (km) Brightness Sun altitude
Rises 01:41:39 0° 205° (SSW) 2,891 ? 8.9°
Reaches altitude 10° 01:44:14 10° 192° (SSW) 1,996 ? 8.5°
Maximum altitude 01:48:02 26° 136° (SE) 1,256 ? 7.8°
Drops below altitude 10° 01:51:53 10° 81° (E) 2,024 ? 7.1°
Sets 01:54:31 0° 68° (ENE) 2,940 ? 6.6°
